GEFSNGP_500_meanwind_144.txt.gz
Wind_Speed
12 13 13 13 13 13 13 12 12 13 13 14 15 15 15 16 16 18 18 19 20 20 21 21 21 21 22 23 23 24 24 24 24 25 24 24 24 24 24 25 24 25 25 25
13 14 13 13 12 12 12 12 12 13 13 14 14 14 15 15 16 17 18 18 19 19 20 20 20 21 21 22 22 22 22 23 22 21 20 21 21 21 21 22 22 22 22 21
12 13 13 12 11 12 11 11 12 12 12 12 12 13 14 14 15 15 16 17 17 18 18 18 18 19 19 19 19 20 20 19 19 19 19 18 18 18 18 18 19 19 19 19
12 12 12 11 11 10 10 10 10 11 11 11 11 12 13 13 14 14 15 15 15 16 15 15 16 17 17 17 17 17 17 16 16 16 16 16 16 16 16 17 18 17 18 18
12 12 11 10 9 9 10 9 9 9 9 10 11 11 12 12 13 14 13 13 13 14 14 14 14 15 16 15 15 15 15 15 14 14 14 15 15 15 15 16 16 16 17 16
11 11 10 9 9 9 9 8 8 8 8 9 10 10 11 11 12 12 12 13 13 13 13 13 14 14 13 13 14 14 13 13 13 13 13 13 13 13 13 13 12 12 13 12
10 10 9 8 8 7 7 7 7 7 7 8 9 9 10 11 11 11 12 12 12 12 12 12 12 12 12 12 12 12 12 12 12 12 11 12 12 12 12 12 11 11 11 11
10 9 8 7 7 6 6 6 6 6 6 7 8 9 9 10 10 10 10 11 11 11 11 11 11 11 12 12 11 11 11 11 11 11 11 11 11 11 11 11 11 11 11 11
10 9 8 7 7 6 5 5 5 5 6 6 7 8 8 8 9 9 9 10 11 11 11 11 11 11 11 11 11 11 11 10 10 10 10 10 10 10 10 9 10 10 10 10
10 9 8 7 7 6 5 4 5 5 5 6 6 6 7 7 8 8 9 10 11 11 12 12 12 12 11 11 11 12 11 11 10 10 10 10 10 10 10 9 9 9 9 9
9 8 8 7 6 5 4 4 4 4 5 5 5 6 6 7 8 8 8 9 10 11 12 12 12 12 12 12 12 11 11 11 11 10 10 10 10 10 10 10 10 10 9 9
9 8 8 7 6 5 4 4 3 3 4 4 4 5 6 7 7 8 9 10 11 11 11 12 12 12 12 13 12 12 11 11 11 11 11 10 11 11 10 10 10 10 10 10
9 9 8 7 6 5 4 3 2 2 3 3 4 4 5 6 7 7 8 10 11 12 12 13 12 12 12 12 13 13 12 12 12 11 11 11 10 10 10 10 9 9 9 9
9 8 7 7 6 4 3 2 2 1 2 3 3 4 5 6 7 7 8 10 11 12 13 13 13 13 13 13 13 13 13 12 12 12 12 12 12 11 11 10 9 9 9 9
9 8 7 7 6 4 3 3 2 0 1 2 3 4 5 6 7 7 8 9 11 12 13 13 13 13 13 14 14 14 13 13 13 13 13 12 12 12 11 10 10 10 9 9
10 9 8 6 6 4 4 3 2 1 1 2 3 4 4 5 6 7 8 9 10 12 13 13 13 13 14 14 15 14 13 13 14 14 14 13 13 12 12 11 11 10 10 10
10 9 8 7 6 5 4 3 3 2 2 2 3 4 4 5 6 7 8 9 10 12 13 13 14 14 14 14 14 14 14 13 14 14 14 14 13 13 13 12 12 11 11 11
10 9 8 8 7 6 5 4 3 3 2 2 3 4 4 5 6 7 8 9 10 11 12 13 13 14 14 14 14 14 14 14 14 14 14 14 14 13 13 13 13 12 12 11
11 10 9 9 8 7 6 5 4 3 2 2 2 3 4 5 6 7 7 8 9 10 11 12 13 13 14 14 14 14 14 14 14 14 14 14 14 14 13 13 13 13 13 13
12 11 10 10 8 7 6 5 4 4 3 3 3 3 4 5 5 7 7 8 9 10 11 12 13 13 13 14 14 14 14 14 14 15 15 15 14 14 14 13 13 13 14 13
14 13 11 10 9 8 7 6 5 4 4 3 3 3 4 5 6 7 8 9 10 11 11 12 13 13 14 14 14 15 15 15 15 15 15 15 15 14 14 14 14 14 14 14
14 13 12 11 10 8 7 6 5 5 4 3 3 4 4 5 6 7 8 9 10 11 12 12 13 14 14 15 15 16 16 16 16 16 16 16 16 15 15 15 15 15 15 15
14 14 12 11 10 9 7 6 6 5 4 4 4 4 5 5 6 7 8 9 11 12 12 13 14 15 15 16 16 17 17 17 17 17 17 17 17 17 17 16 17 17 17 17
15 14 13 11 10 9 8 7 5 4 4 4 4 4 5 6 7 8 9 10 11 12 13 14 15 16 16 17 17 18 18 18 18 18 18 19 19 19 18 18 19 20 19 19
15 14 12 11 9 8 7 6 5 4 3 3 3 4 5 6 8 9 10 11 12 13 14 15 16 17 18 18 18 19 19 19 20 20 21 21 21 21 22 22 22 22 22 21
15 13 12 11 9 8 7 5 4 3 2 2 3 4 6 7 8 10 11 12 13 14 15 16 17 18 19 20 20 21 21 21 21 22 23 23 23 24 24 24 24 23 23 23
15 13 12 10 9 8 6 5 3 2 0 2 3 5 6 8 9 11 12 13 14 15 16 17 18 19 20 21 22 22 23 23 24 24 24 25 25 26 25 25 25 25 25 25

GEFSNGP_500_meanwind_150.txt.gz
Wind_Speed
15 15 14 14 14 15 16 17 18 19 21 20 20 19 20 21 20 20 21 20 21 21 21 22 22 22 22 22 23 23 23 22 23 23 23 22 23 22 22 23 22 22 22 22
17 16 15 16 15 16 17 18 18 19 20 18 18 19 20 20 19 19 19 19 20 20 21 22 22 22 22 22 22 22 22 21 21 21 20 21 21 21 21 20 20 20 20 21
17 17 17 16 15 15 16 16 17 17 18 18 17 18 18 18 17 17 18 19 20 20 20 21 21 21 21 21 21 21 20 20 20 19 19 19 20 20 19 19 19 19 20 20
17 17 17 15 14 15 17 17 17 16 18 17 17 16 16 16 15 16 17 19 20 20 20 20 20 20 20 20 20 19 19 18 18 18 18 18 19 19 17 17 17 17 17 17
18 18 18 16 14 14 17 17 17 16 16 16 16 15 14 14 14 15 16 18 19 19 19 19 19 18 19 19 19 18 18 17 17 17 17 17 17 17 16 16 16 16 17 16
18 18 18 16 15 14 15 15 15 15 14 14 14 14 13 13 14 15 16 17 18 18 18 17 17 17 17 18 18 18 17 16 16 16 16 16 15 15 15 14 14 14 15 15
18 18 17 15 14 14 14 14 14 13 14 14 13 12 13 13 14 14 15 16 17 17 17 16 16 15 15 16 17 17 16 15 15 16 15 15 13 13 13 14 13 13 13 13
17 16 16 14 14 13 13 13 12 13 13 12 12 11 12 12 13 13 14 15 15 15 15 15 15 14 14 15 16 16 16 16 15 15 13 13 12 13 13 13 12 12 13 14
17 16 15 14 13 13 12 12 12 11 11 11 11 10 11 11 12 12 13 13 14 14 14 14 14 14 15 15 15 15 16 15 15 14 13 13 12 13 12 12 12 12 13 13
16 16 14 13 12 12 11 12 11 10 10 10 10 10 10 10 11 12 13 13 14 14 14 14 14 14 15 15 15 15 15 15 14 14 14 13 13 12 12 12 12 13 13 13
15 13 13 13 11 11 11 10 10 10 9 9 9 9 9 10 10 11 12 12 13 13 13 13 14 14 15 15 15 15 14 14 14 15 15 14 13 13 12 13 13 13 12 13
16 13 13 12 11 11 10 10 10 9 8 8 8 8 8 8 8 9 10 10 12 13 13 14 14 14 15 15 14 14 14 14 14 15 15 15 14 13 13 14 14 14 13 13
14 14 12 11 11 11 10 10 9 7 7 7 6 6 6 7 8 9 9 10 11 13 14 14 14 15 15 15 14 14 14 15 15 15 15 15 14 14 13 14 14 13 13 13
14 14 12 10 9 9 8 8 7 5 5 5 5 5 5 6 7 8 9 10 11 12 14 14 14 15 15 15 15 14 15 15 15 15 15 15 14 15 15 15 14 14 14 13
13 13 12 10 9 7 5 5 5 4 4 4 4 4 5 6 7 8 9 10 11 12 14 14 15 15 15 15 15 15 15 15 15 15 15 15 15 15 15 15 15 15 15 15
13 12 12 10 9 7 5 5 4 4 3 3 2 3 4 5 7 8 9 9 11 13 14 14 15 15 15 15 15 15 15 15 15 15 16 16 16 16 17 17 16 17 17 16
13 13 12 11 10 8 6 5 4 3 3 2 2 3 3 5 6 8 9 10 11 13 14 14 15 15 15 15 15 15 15 15 15 16 16 16 16 16 17 17 17 17 17 17
14 14 13 12 10 10 7 5 4 3 3 2 1 2 3 5 6 8 9 10 11 13 14 14 14 15 15 15 16 16 16 15 15 16 16 16 17 17 18 18 18 18 17 18
15 14 13 12 10 9 8 6 5 4 3 1 0 2 3 5 6 7 8 9 11 12 13 13 14 14 15 16 16 17 17 17 17 17 17 17 18 18 18 19 19 19 19 19
16 14 13 12 10 8 8 7 6 4 3 2 0 1 3 5 6 7 8 9 10 11 12 13 14 14 15 16 16 17 18 18 18 18 18 19 19 19 19 20 20 19 19 19
16 15 14 12 10 10 9 8 6 5 3 2 1 1 3 5 6 7 8 9 10 11 12 13 14 15 15 16 17 18 19 19 19 19 20 20 20 21 21 21 21 20 20 20
17 16 14 13 12 11 10 8 7 5 4 2 1 1 3 4 6 7 8 9 10 11 12 13 14 15 16 17 18 19 20 20 21 22 22 22 22 22 22 22 23 22 22 22
18 16 15 14 13 11 10 9 7 5 4 3 1 1 3 4 6 7 8 9 10 11 13 14 15 16 17 18 19 20 21 22 22 23 23 23 23 23 23 24 24 23 23 23
18 17 16 14 13 12 10 9 7 5 4 2 1 1 3 4 5 7 8 9 11 12 13 14 15 16 18 19 21 22 22 23 23 24 24 24 24 25 25 25 25 24 24 24
19 18 17 15 13 12 10 9 7 6 4 2 0 1 3 4 5 7 8 10 12 13 14 15 16 17 19 20 22 22 23 24 25 25 25 25 25 26 26 26 26 26 26 26
19 18 16 14 13 11 10 8 7 5 3 2 0 2 3 4 6 7 9 11 12 13 15 16 17 19 21 22 23 23 24 25 26 26 25 26 27 27 27 27 26 26 27 27
19 18 16 14 13 11 10 8 6 5 3 2 1 2 3 4 6 8 10 11 13 14 15 17 18 20 21 22 24 24 25 26 27 27 26 28 28 28 28 28 28 28 29 29

GEFSNGP_500_meanwind_156.txt.gz
Wind_Speed
18 18 18 18 17 17 18 17 17 16 17 17 17 17 16 17 17 17 16 18 18 19 19 19 20 21 21 21 21 21 21 20 20 20 19 20 20 20 19 18 18 18 18 18
19 18 18 18 18 18 18 18 17 17 17 16 16 15 16 16 16 16 15 16 17 18 18 19 20 20 20 20 19 19 19 19 19 19 19 18 18 17 17 17 17 17 17 17
20 19 19 18 17 18 17 17 17 16 15 15 15 15 15 14 14 15 15 16 16 17 17 18 18 19 19 20 19 18 18 18 18 18 18 17 16 16 16 16 16 15 16 16
20 20 20 16 16 16 16 16 16 16 15 14 14 14 13 13 14 15 15 15 16 17 17 17 18 18 18 19 17 16 16 17 17 17 17 16 16 16 15 15 15 15 15 15
20 20 19 15 14 14 15 15 14 14 13 12 12 12 12 13 14 15 15 14 15 16 16 17 17 17 17 17 16 16 16 16 16 16 15 16 15 15 15 14 14 14 13 13
19 19 17 14 13 13 14 13 12 13 12 11 11 11 12 12 13 13 12 13 14 15 16 16 16 17 16 16 15 15 15 15 15 15 15 14 14 14 14 14 14 13 13 12
18 17 15 14 13 13 13 12 12 11 11 10 10 10 11 11 12 11 11 12 13 14 15 15 16 16 15 15 14 14 15 15 16 15 15 14 14 13 13 13 14 13 13 13
16 16 14 13 12 11 12 11 10 11 10 9 9 9 9 10 10 10 10 11 13 13 14 15 15 14 14 14 14 14 14 15 15 15 14 14 13 13 13 13 14 14 13 13
15 14 13 12 11 11 11 11 10 9 8 8 8 8 9 9 8 9 9 11 12 13 13 14 14 14 14 14 14 14 14 14 14 14 14 14 14 14 14 14 14 14 14 14
15 13 13 12 11 11 11 9 8 6 6 7 6 6 7 7 7 7 8 10 11 11 12 13 13 14 14 14 14 14 14 13 14 14 14 14 14 14 15 15 14 14 14 14
14 13 12 11 11 11 10 9 8 6 5 5 4 5 6 6 6 7 8 9 10 11 12 12 13 14 14 14 14 13 13 13 13 14 14 14 14 15 15 15 15 15 14 15
13 12 12 11 11 11 9 9 8 7 6 4 4 4 4 4 5 6 7 8 10 11 11 12 13 14 14 14 13 12 13 13 13 14 15 15 16 16 16 16 15 15 15 16
13 13 12 11 11 10 10 9 8 7 5 4 3 3 2 3 3 5 7 8 9 10 10 11 13 14 14 13 13 13 13 13 13 14 15 16 16 16 17 17 16 16 16 16
14 13 12 11 10 10 10 9 8 6 5 4 3 2 2 2 3 5 7 8 9 9 10 11 12 13 13 14 14 14 14 14 14 14 15 16 16 17 17 17 17 17 17 17
13 13 12 12 11 10 9 7 6 6 5 5 3 1 1 1 3 5 6 7 8 9 10 11 11 12 13 14 14 14 15 15 15 15 16 17 17 17 18 18 18 17 17 17
13 13 13 12 10 10 9 7 6 6 5 5 3 1 1 1 2 4 5 6 7 9 9 10 10 11 12 13 14 15 15 16 16 17 17 18 18 18 18 18 18 18 17 18
12 13 12 11 10 9 9 8 8 7 6 5 4 3 2 2 2 3 5 6 7 8 9 10 10 11 12 13 14 15 15 16 17 18 18 19 19 18 18 18 18 18 18 19
12 13 12 11 11 10 9 9 9 7 6 6 4 3 2 2 2 3 5 5 7 8 9 9 10 11 13 14 14 15 16 17 18 19 19 20 20 19 19 19 19 19 20 20
12 13 12 12 12 11 10 10 9 8 7 6 5 3 3 2 3 3 4 5 7 8 9 10 11 12 13 15 16 17 17 18 19 19 20 21 21 20 20 20 21 21 21 21
13 12 12 12 12 11 10 10 9 9 8 7 5 5 4 3 3 3 4 5 6 8 9 10 11 12 14 15 17 18 18 19 20 20 21 21 22 22 22 22 23 22 22 22
13 13 13 13 13 12 11 11 11 10 9 8 7 5 4 3 3 3 4 5 7 8 8 9 11 12 14 16 17 19 20 20 21 22 22 22 22 23 24 24 23 23 23 23
13 14 14 14 14 13 13 12 12 11 10 9 7 5 4 3 3 3 4 5 6 7 8 10 11 13 15 16 18 20 21 21 22 23 23 23 23 24 24 24 24 24 23 23
14 15 15 15 15 15 14 13 13 12 10 9 7 5 3 2 2 3 4 5 6 8 9 10 12 13 15 17 19 20 22 22 23 24 24 24 25 25 24 24 24 24 24 25
15 16 16 17 17 16 15 14 13 12 10 9 6 5 3 2 2 3 4 5 7 8 9 11 12 14 16 18 20 21 22 23 24 25 25 25 25 25 25 25 25 25 26 27
16 17 18 18 18 17 16 15 13 11 10 8 6 4 3 2 2 3 4 5 7 8 10 11 13 15 17 19 20 22 23 25 25 26 26 26 25 25 26 26 26 27 27 28
17 17 18 19 18 17 16 15 13 11 10 8 6 5 3 2 2 3 4 6 7 9 11 12 14 16 17 19 21 23 24 25 26 26 27 27 27 27 27 27 28 29 29 30
18 18 19 19 18 17 16 14 13 11 10 8 6 5 3 2 1 3 4 6 8 10 12 13 14 16 18 20 21 23 25 25 26 27 27 28 28 28 28 28 29 30 32 33

GEFSNGP_500_meanwind_162.txt.gz
Wind_Speed
21 21 21 21 21 22 23 24 25 23 23 21 19 19 19 19 18 17 17 18 18 18 18 19 20 20 20 20 20 20 21 22 22 22 22 21 21 21 21 21 21 21 21 20
21 20 20 20 21 22 22 22 23 23 22 20 19 18 18 18 18 17 18 18 18 18 18 18 19 19 19 19 20 20 21 21 21 21 20 19 19 19 19 19 20 19 19 18
22 20 20 20 20 21 21 20 20 20 20 19 18 18 18 17 17 17 18 18 17 17 16 17 18 18 18 19 19 19 19 19 19 18 18 17 17 17 17 18 17 17 16 17
23 21 21 19 19 19 19 18 19 18 19 19 18 17 17 17 17 17 17 16 15 16 16 16 16 17 18 18 18 18 17 17 17 17 16 16 16 16 16 16 16 16 16 16
23 22 22 20 19 18 18 18 18 17 17 16 15 15 15 16 15 14 14 14 14 14 14 14 15 16 17 16 17 16 16 16 15 15 15 16 15 16 16 16 16 16 16 16
21 22 22 20 19 18 18 16 16 16 15 13 12 12 12 13 13 11 11 11 13 13 13 13 14 15 15 15 15 15 15 14 14 14 15 15 15 16 16 16 16 17 17 17
20 20 20 19 18 17 16 15 15 14 13 12 11 10 10 10 11 10 10 10 11 11 12 12 13 13 14 13 14 14 14 13 14 14 15 15 15 16 16 17 17 17 17 17
20 20 18 18 17 16 15 14 13 13 12 12 11 9 9 8 8 8 9 9 9 10 11 11 11 11 12 12 12 13 14 14 14 14 14 15 16 16 17 17 17 18 17 18
18 17 17 17 17 15 15 14 13 12 10 10 10 8 8 8 7 7 8 8 8 9 9 9 9 10 11 11 12 13 14 14 14 15 15 16 17 17 17 17 18 18 18 18
16 15 16 16 15 15 14 13 12 12 10 9 8 7 8 8 6 6 6 6 6 7 8 8 8 9 11 12 13 13 13 14 15 15 16 17 17 18 18 18 18 19 19 19
14 14 14 14 15 15 13 12 12 11 10 9 7 6 6 6 6 6 5 5 6 7 8 8 8 9 11 12 13 13 14 14 15 16 17 17 18 19 19 19 19 19 19 20
14 14 15 14 15 14 12 11 11 11 10 9 7 6 6 6 6 5 4 4 5 6 7 7 8 10 11 12 12 14 14 15 16 17 18 18 19 19 19 19 19 20 19 20
15 14 14 14 14 13 12 11 10 10 10 8 8 6 6 5 4 4 4 4 5 5 6 7 9 10 11 11 13 14 15 16 16 17 18 19 19 19 19 19 20 20 20 20
14 14 13 13 12 13 12 11 10 9 9 8 8 7 6 5 4 3 4 4 4 5 6 7 8 10 11 12 13 14 15 16 17 18 18 19 20 20 20 21 21 21 21 20
13 13 12 12 11 11 11 10 10 9 9 8 8 7 6 5 4 3 3 3 4 4 5 7 8 9 10 12 13 14 15 17 17 18 19 20 20 21 21 22 22 22 22 22
13 12 12 12 11 11 10 10 10 9 9 9 8 7 6 5 4 3 2 2 3 4 5 7 8 9 10 12 13 14 16 17 18 19 20 20 21 22 22 23 24 24 24 23
12 12 12 11 12 11 10 10 10 10 9 8 8 7 6 5 4 3 2 2 2 4 5 7 8 9 10 12 13 15 16 17 19 20 21 21 22 22 23 23 24 25 25 24
13 12 12 11 11 11 11 11 11 10 9 8 7 7 7 6 5 3 1 1 2 4 5 7 8 9 10 12 14 16 17 18 19 21 21 22 23 23 24 24 25 25 25 25
13 13 13 12 11 11 11 11 11 10 10 9 8 7 7 6 4 3 2 1 2 4 5 7 8 10 11 13 14 16 17 19 20 21 22 23 23 24 25 26 25 25 25 25
14 14 14 13 12 11 12 11 10 11 11 10 9 8 7 6 5 3 1 1 2 4 5 7 8 10 11 13 15 16 18 19 20 22 23 23 24 25 26 26 26 26 25 26
15 14 14 14 13 13 12 11 11 11 11 10 10 9 8 6 5 3 1 1 2 4 5 7 8 10 11 13 15 16 18 19 21 22 23 24 25 25 26 26 26 26 26 26
15 15 15 15 15 14 12 11 12 12 12 12 12 11 9 7 5 4 2 0 2 4 6 7 9 10 12 14 15 17 18 20 22 23 24 25 26 26 27 27 27 27 27 27
16 16 16 16 15 14 13 13 13 13 13 13 13 11 9 7 5 4 2 0 2 4 6 7 9 11 13 14 16 17 19 21 22 23 24 26 27 28 28 28 28 28 28 28
17 16 16 15 15 14 14 14 14 14 14 14 13 11 9 7 6 4 2 0 2 4 5 7 9 11 13 15 16 18 20 22 23 24 25 26 27 28 28 28 29 29 30 30
17 17 16 15 14 14 14 14 15 15 15 14 13 11 10 8 6 4 2 0 2 4 5 7 10 12 13 15 17 19 21 22 24 25 26 26 27 28 29 29 30 31 32 32
18 18 17 16 15 15 15 15 15 16 15 14 13 11 9 8 6 4 2 1 3 4 6 8 10 12 14 15 17 19 21 23 24 25 26 27 28 29 30 31 32 32 33 34
19 19 19 18 17 16 17 17 17 16 15 14 12 10 9 8 6 5 3 3 3 5 7 9 11 12 14 16 18 20 22 23 25 25 26 27 29 31 31 32 33 34 34 35

GEFSNGP_500_meanwind_168.txt.gz
Wind_Speed
18 18 18 18 19 19 20 20 21 21 21 21 20 19 19 18 18 19 18 17 18 18 17 17 17 17 18 19 20 19 19 20 20 20 19 19 19 19 19 20 20 20 21 21
19 18 19 19 19 19 19 20 20 20 20 20 18 18 18 18 18 18 17 17 17 16 16 17 17 16 16 17 17 18 18 18 18 17 17 17 18 18 19 19 20 20 20 20
19 19 19 20 20 20 20 19 19 19 19 18 17 17 18 17 17 16 16 15 15 14 14 15 14 14 15 16 16 16 17 17 17 16 16 16 17 18 19 19 19 19 19 19
19 19 19 19 19 19 19 19 19 18 17 17 16 16 17 16 15 14 13 13 13 13 13 13 13 13 14 15 15 15 16 16 15 16 16 16 17 17 18 19 19 18 18 17
19 19 19 19 19 18 18 18 18 17 17 16 15 15 15 14 14 13 12 11 11 11 11 11 11 11 12 13 14 15 15 15 15 15 15 15 17 17 18 19 18 18 17 17
19 18 18 19 18 18 18 17 17 17 16 15 14 14 13 13 13 12 12 10 10 10 9 10 10 10 11 12 13 13 14 15 15 15 15 16 16 17 17 18 17 17 17 17
19 19 19 20 18 18 17 16 16 15 14 13 13 13 13 13 12 10 10 10 10 9 8 9 9 10 10 11 12 13 14 14 14 14 14 15 15 16 17 17 17 17 17 18
19 18 18 18 18 17 16 15 15 14 14 13 12 12 11 11 10 9 8 8 8 7 8 8 9 9 10 10 11 12 13 13 13 13 14 15 15 16 17 17 18 18 18 18
18 17 17 17 17 16 15 14 13 13 12 12 11 10 9 9 8 7 7 7 7 6 7 8 8 8 9 10 11 12 12 12 13 14 14 15 16 16 17 18 18 19 19 19
18 17 16 16 16 15 13 12 12 11 10 9 9 8 8 7 7 6 5 5 5 6 6 6 7 8 9 9 10 11 11 12 12 13 14 15 16 17 17 18 18 19 19 19
18 17 16 15 14 13 12 11 11 10 8 8 8 7 6 5 5 4 4 4 4 5 6 6 7 7 8 10 10 11 11 13 14 15 15 16 16 17 17 18 18 18 19 20
18 17 15 14 13 12 11 11 11 10 9 8 7 6 5 4 4 4 4 3 4 4 5 6 7 8 8 9 10 11 12 13 14 15 15 16 17 17 17 18 19 19 20 21
17 16 15 13 13 12 11 10 10 9 9 7 7 6 5 4 4 4 3 3 4 4 5 6 6 8 9 10 11 11 12 13 14 14 15 16 17 18 18 19 20 21 21 22
16 15 14 13 12 12 11 10 10 9 9 8 7 7 6 5 5 4 4 4 4 5 5 6 7 8 9 10 10 11 13 14 14 15 16 17 17 18 19 20 21 22 22 23
16 15 14 12 12 12 11 10 9 8 8 7 7 7 6 6 5 5 5 4 4 5 5 5 6 7 8 9 10 12 13 14 15 16 16 17 18 19 20 20 21 22 23 24
16 15 14 12 12 11 10 10 9 8 7 7 6 6 6 6 5 5 5 4 4 4 4 4 6 7 8 9 11 12 13 15 15 16 17 17 18 19 20 21 22 23 23 24
16 14 13 11 11 11 10 10 9 8 8 7 7 6 6 5 5 5 5 5 4 3 3 4 5 7 8 9 11 12 14 15 16 16 17 18 19 20 21 22 23 23 24 24
15 14 13 12 11 10 10 10 9 9 8 7 6 5 5 5 5 5 5 5 4 3 3 4 5 7 8 10 11 13 14 16 17 17 18 19 20 21 22 23 23 24 24 25
16 14 13 12 11 10 10 10 9 9 8 7 7 6 5 5 5 5 5 4 3 2 3 4 5 7 8 10 11 13 14 16 17 18 19 20 21 22 23 23 24 24 25 26
15 14 13 12 12 11 10 10 9 9 8 7 7 6 5 5 6 5 4 4 3 2 3 4 5 6 8 10 11 13 14 16 17 19 20 21 22 23 24 24 25 25 26 27
15 15 14 13 12 12 11 11 10 9 8 8 7 6 6 6 6 5 5 3 3 2 3 4 5 6 8 10 11 13 15 16 18 19 20 21 23 23 24 24 25 25 27 28
16 15 14 14 13 13 12 12 11 10 9 8 7 7 7 6 6 5 5 3 3 3 3 4 5 6 8 10 11 13 15 16 18 19 21 22 23 24 24 25 26 27 28 29
17 15 14 14 14 13 13 13 12 11 10 9 8 8 7 6 6 5 5 3 3 3 3 4 5 7 8 10 12 13 15 16 18 20 22 23 23 24 25 26 27 28 29 30
17 16 15 15 14 14 14 14 13 12 11 10 9 8 8 7 7 6 5 4 3 3 3 4 5 7 9 10 12 13 15 16 18 20 22 23 23 24 25 27 28 29 30 30
17 17 16 15 16 16 15 15 14 13 12 11 11 10 9 8 8 7 5 4 3 3 3 4 6 7 9 11 12 13 15 16 18 20 22 22 23 24 26 27 29 30 31 31
17 17 17 17 17 17 16 15 14 14 13 13 12 11 10 10 8 7 5 4 4 3 4 5 6 8 9 11 12 13 15 17 19 20 22 23 24 25 27 28 30 31 31 32
19 18 18 18 18 18 17 16 15 14 14 14 13 12 12 11 9 8 6 5 4 4 5 6 7 8 9 11 13 14 16 18 19 20 22 23 25 26 28 29 30 30 31 33

GEFSNGP_500_meanwind_174.txt.gz
Wind_Speed
17 18 18 19 19 20 20 20 21 22 22 23 22 24 24 25 25 26 24 24 23 22 20 20 19 19 19 20 20 20 20 20 20 20 20 20 20 20 21 22 22 22 23 23
18 18 19 19 19 20 20 20 21 22 23 22 23 23 24 25 25 24 23 22 21 20 19 18 19 19 19 19 19 19 19 19 19 19 19 19 19 20 21 21 22 22 22 22
19 19 20 19 19 20 20 20 21 23 22 23 23 24 24 24 24 23 21 20 19 19 18 18 18 17 17 16 16 17 17 18 18 18 17 18 18 19 20 21 22 21 22 22
19 18 19 20 21 21 20 21 22 23 24 24 24 24 23 23 23 22 20 19 18 17 16 16 16 15 15 15 15 15 16 15 16 17 17 17 18 19 19 21 22 22 21 21
19 18 19 19 21 20 20 21 23 23 23 23 23 23 22 21 20 19 17 16 15 14 14 14 13 13 13 13 13 14 14 15 15 16 16 17 18 19 20 21 21 21 21 20
21 20 20 21 22 19 20 22 23 23 22 21 21 20 19 18 17 15 14 14 14 13 13 12 10 11 12 12 12 13 14 15 16 16 16 18 18 19 19 19 20 20 20 20
21 20 20 21 21 20 21 23 23 22 21 20 19 18 16 16 14 14 14 13 12 11 10 10 9 10 11 12 12 12 14 15 15 15 16 18 18 18 18 19 19 20 21 21
20 20 20 21 21 21 22 21 21 20 18 18 17 15 14 14 13 13 14 13 12 10 8 9 9 10 10 11 11 13 14 15 15 16 17 17 18 18 18 18 20 21 22 22
20 20 21 21 22 21 21 20 20 19 17 17 17 14 13 13 13 13 13 12 11 9 8 8 9 9 9 10 12 12 13 14 16 16 17 17 18 18 18 19 19 21 21 22
22 22 22 22 22 22 21 20 19 18 17 16 16 13 12 12 13 12 11 10 9 8 8 8 9 9 9 10 12 13 13 14 15 16 16 17 18 18 18 18 19 20 21 22
23 23 22 21 21 21 20 19 19 17 16 15 14 13 12 12 12 11 10 9 8 8 7 8 8 9 9 11 12 13 13 14 15 16 16 17 17 18 18 19 19 20 21 23
23 23 23 22 21 20 19 18 17 16 15 14 14 13 12 11 10 9 9 8 8 8 8 8 8 9 10 11 12 13 13 14 15 16 17 17 17 18 19 19 19 20 22 23
23 23 23 22 21 18 18 17 16 15 15 14 14 12 11 10 9 9 9 8 8 8 8 8 8 9 9 11 12 13 13 14 16 17 17 18 18 18 19 20 20 21 22 23
23 23 22 21 20 18 17 16 15 14 14 13 13 12 10 9 9 9 8 8 8 8 8 7 8 8 10 12 12 12 13 14 15 16 17 18 19 19 20 21 22 22 23 25
23 23 22 20 19 17 16 15 14 13 13 12 11 10 9 9 9 8 7 7 7 7 7 7 8 9 10 11 11 12 13 14 15 16 17 18 19 20 21 21 22 23 24 26
22 22 20 19 17 16 15 15 14 13 12 11 11 9 9 9 8 7 7 7 7 7 7 8 9 9 10 11 11 13 13 14 15 16 18 19 20 21 22 22 23 24 25 26
21 20 19 17 16 15 15 14 14 13 12 11 10 9 9 8 7 6 6 6 6 6 7 8 8 9 10 10 11 13 13 14 16 17 18 19 20 21 22 23 24 25 26 27
20 19 18 17 16 15 14 13 13 13 12 12 11 10 8 8 6 5 5 6 6 6 7 8 8 9 9 9 11 12 13 14 16 17 19 20 21 22 23 24 24 25 26 27
19 18 17 17 16 15 14 14 13 13 13 12 11 9 8 7 6 5 5 5 5 6 6 7 8 8 9 9 10 12 13 15 16 17 19 20 21 22 23 24 25 26 27 27
19 18 18 17 16 15 15 14 13 13 12 11 10 9 7 7 6 5 5 5 5 6 6 7 7 8 9 9 11 12 13 15 16 18 19 20 21 22 23 24 25 26 27 28
19 18 17 17 16 15 15 14 13 13 12 11 10 9 8 7 6 6 5 5 5 5 6 7 7 8 8 9 11 12 14 15 17 18 19 20 21 22 23 25 26 27 27 28
19 18 18 16 15 15 15 14 14 13 13 12 11 9 8 8 7 6 5 5 5 6 6 7 7 7 8 10 11 13 14 16 17 18 19 20 21 23 24 25 27 27 28 29
20 18 17 16 16 15 15 15 14 14 13 12 11 10 9 9 8 7 6 5 6 6 6 6 6 7 8 10 12 13 14 15 16 18 19 20 22 23 25 26 27 28 29 29
20 19 18 17 17 16 15 15 15 14 13 12 11 11 10 10 9 8 7 6 6 6 6 6 6 7 9 11 12 13 14 15 16 18 19 20 22 24 25 27 27 28 29 29
20 19 18 18 18 17 16 16 15 14 14 13 12 12 11 10 9 8 7 7 6 6 6 5 6 7 9 10 12 13 14 16 17 18 19 20 22 24 26 27 27 28 29 30
21 19 19 18 18 18 17 17 16 15 15 14 13 12 11 10 9 8 8 7 6 6 5 5 6 8 9 10 12 13 15 16 16 17 19 20 22 24 25 27 27 28 30 31
21 20 19 18 18 18 18 17 16 16 15 15 13 12 12 11 10 9 8 7 6 5 5 6 7 8 9 11 12 13 14 15 16 17 19 20 22 24 25 26 27 29 30 31

GEFSNGP_500_meanwind_180.txt.gz
Wind_Speed
14 15 16 16 17 18 19 19 19 19 20 20 21 21 21 21 22 23 23 24 23 22 21 20 20 19 17 16 15 16 15 15 15 16 17 16 17 18 18 18 18 18 19 19
15 16 16 16 16 17 17 18 18 18 19 20 21 22 22 22 22 22 22 21 21 21 20 19 18 16 15 13 13 13 13 14 14 14 14 15 16 16 16 17 17 18 19 19
15 16 16 15 17 17 16 18 19 19 20 20 21 21 21 21 21 21 20 20 19 19 18 17 15 14 12 11 11 12 12 13 13 13 13 14 15 16 16 16 17 18 18 19
17 17 16 17 17 17 18 19 19 19 20 21 21 21 21 21 20 20 19 18 17 16 16 14 12 12 11 11 12 11 11 12 12 13 13 14 15 15 15 16 16 16 17 18
18 19 18 18 17 18 18 18 18 19 20 21 21 20 20 19 18 18 17 17 15 14 14 12 11 11 10 10 10 10 11 12 12 13 14 14 14 15 16 16 17 17 18 19
19 19 19 19 18 19 19 18 17 18 19 20 20 19 18 17 17 17 16 15 13 13 12 12 11 10 10 10 10 10 11 11 12 12 13 14 15 16 16 16 17 18 19 20
20 20 20 20 20 20 19 18 18 18 19 19 18 17 17 16 17 16 14 13 13 12 12 11 10 10 10 9 10 10 11 11 11 12 13 13 14 15 16 16 17 18 20 21
21 22 21 21 20 20 19 18 18 19 19 18 16 16 15 15 15 15 13 13 12 11 11 10 10 10 10 9 10 11 10 11 12 12 13 13 15 16 16 17 18 19 20 22
22 22 22 21 21 20 18 17 18 18 17 17 16 15 14 14 14 13 13 12 11 10 9 9 10 9 9 10 10 11 11 11 12 12 13 14 15 16 16 17 18 19 20 21
22 22 22 22 21 20 19 18 17 17 16 16 15 14 14 13 13 12 12 12 11 10 9 9 9 9 10 10 10 11 11 12 12 13 14 15 15 16 16 17 18 19 21 21
22 22 22 21 21 21 20 19 18 17 16 15 14 13 12 12 12 11 11 11 11 9 9 9 9 9 10 10 10 11 11 12 12 13 14 15 15 16 17 18 19 20 21 22
22 21 22 21 21 21 19 18 18 16 15 14 13 12 11 12 11 11 11 11 10 9 8 9 9 9 10 10 11 11 11 12 13 14 15 15 16 17 18 19 20 21 22 23
23 22 22 22 21 20 18 18 17 16 15 13 12 11 11 11 10 10 10 10 10 8 8 9 9 10 10 10 11 11 12 12 13 14 15 16 17 18 19 19 20 22 22 23
24 23 22 21 20 19 18 18 17 15 14 12 12 11 11 11 10 10 10 10 9 8 8 9 9 10 10 10 11 12 12 12 13 14 15 17 17 18 19 19 20 21 22 23
24 24 23 22 20 19 18 18 16 15 14 13 12 11 11 10 10 10 10 10 9 8 8 8 9 9 9 10 11 12 12 13 13 14 15 16 17 18 19 19 20 21 22 24
24 23 22 21 20 18 17 16 15 14 13 13 12 11 11 10 10 10 10 9 8 7 7 8 8 9 9 10 10 11 12 13 14 15 15 16 17 18 19 19 20 21 23 24
23 22 22 20 19 17 16 16 15 15 14 13 12 11 11 11 10 9 9 8 7 7 7 7 8 8 9 9 10 12 12 13 14 15 15 16 18 18 19 20 21 21 23 24
23 21 21 19 18 16 15 15 15 15 15 14 13 12 12 11 11 9 8 7 6 6 6 6 7 8 8 9 10 12 13 14 15 15 16 17 18 19 20 20 21 22 23 24
22 20 19 18 17 16 16 15 15 15 14 14 13 13 12 11 10 8 7 7 6 6 6 6 7 8 8 9 11 12 12 13 14 15 15 17 18 19 20 21 22 22 23 24
20 19 19 18 17 17 16 15 15 15 14 13 12 12 11 10 9 8 8 7 7 6 6 6 7 7 8 9 10 11 12 13 13 14 15 17 18 19 20 21 22 23 23 24
19 18 18 18 17 17 16 15 15 14 14 12 12 12 12 11 10 9 9 8 8 7 7 6 6 7 8 8 10 11 12 13 13 14 15 17 18 19 20 22 23 23 24 24
19 18 18 18 18 17 16 16 15 14 14 14 13 13 13 12 11 10 9 9 8 8 7 6 6 7 9 9 10 11 12 12 13 14 15 17 18 19 20 22 23 24 25 25
19 18 18 18 18 17 16 16 15 15 15 14 14 14 14 13 12 11 10 9 8 8 7 7 7 8 9 10 10 11 11 12 13 14 15 17 18 19 20 22 23 24 25 25
20 19 20 19 18 17 16 16 16 16 15 15 15 15 15 14 13 12 11 10 9 8 7 7 8 8 9 9 10 10 11 12 12 13 15 16 18 19 20 21 23 24 25 25
21 21 21 20 19 17 16 16 16 16 16 16 16 16 15 15 14 13 12 10 9 8 8 8 8 8 8 8 9 10 11 11 12 13 14 16 17 19 20 21 22 24 25 26
22 22 22 21 20 19 18 18 17 17 17 16 16 17 16 15 14 13 12 11 10 9 8 8 8 8 8 8 8 9 10 11 11 12 14 16 17 18 20 22 22 24 25 27
23 23 22 22 21 20 20 19 18 18 17 17 16 17 17 16 15 14 13 12 11 10 9 9 8 8 7 7 7 8 9 10 11 12 14 15 16 18 20 21 23 24 26 27